Indianapolis International Airport
KIND : now visible

Airfield :











YOU CAN JOIN US ON...

 
LOGIN :

Register | Disclaimer

   EN    FR    IT 

 









Legend :    VFR   Marginal VFR   IFR   Intensive IFR   Very Intensive IFR
Visi :
Ceiling :
>= 8 km
>= 3000ft
5 to 8 km
1000 to 3000 ft
1500m to 5 km
500 to 1000 ft
800 to 1500m
200 to 500 ft
< 800m
< 200 ft
Symbols :   Thunderstorms  Fog  Heavy snow  Heavy precipitations  Wind > 20 kt






- Airport Elevation : 797 ft
- IATA code : IND


KIND - Indianapolis International

CURRENT METAR :
  • 041554Z 21006KT 10SM SCT250 M02/M09 A3033 RMK AO2 SLP281 T10171089 $

EXPIRED METARs :
  • 041454Z 23007KT 10SM SCT250 M03/M08 A3035 RMK AO2 SLP286 T10281078 53002 $
  • 041354Z 20006KT 10SM SCT250 M06/M09 A3034 RMK AO2 SLP284 T10561089 $

TAF KIND
Valid from the 04 at 12:00 until the 05 at 18:00 UTC


041120Z 0412/0518 VRB04KT P6SM BKN250
FM041600 23009KT P6SM SCT250
FM050000 20005KT P6SM SCT200
FM051000 17005KT P6SM BKN150
KZID FIR / North America



MET'MAP, your aeronautical weather chart ! - Copyright ORBIFLY December 2007 - Disclaimer

ORBIFLY MET'MAP TEAM :

Programming & Development : Alexandra Zaïnal
Original concept : Baudouin d'Aumeries
Technical & hardware support : Manuel Goepfert
Assistance : Marc-Olivier Méhu




SOURCES & CREDITS :

   NOAA       Earth
Advisory